Flag for Kazakhstan Weather past 2 weeks in Karaganda, Kazakhstan

25 °F


Feels Like: 12 °F
Forecast: 25 / 33 °F
Wind: 15 mph from South

Location: Karaganda

Current Time: Nov 27, 2015 at 11:59:59 PM

Latest Report: Nov 27, 2015 at 11:30 PM

Visibility: N/A

Pressure: 29.98 "Hg (27.94 "Hg at 555m altitude)

Humidity: 86%

Dew point: 21 °F

Location of KaragandaLocation

Historic Weather in Karaganda — Graph


Karaganda temperature yesterday

Maximum temperature yesterday: 34 °F (at 1:00 PM)
Minimum temperature yesterday: 27 °F (at 3:30 AM)
Average temperature yesterday: 29 °F

Past Weeks' High & Low Weather Summary

High36 °F (Nov 14, 3:00 AM)100% (Nov 13, 10:00 PM)30.63 "Hg (Nov 13, 10:00 PM)
Low-18 °F (Nov 22, 3:30 AM)47% (Nov 24, 7:00 AM)29.86 "Hg (Nov 13, 12:00 AM)
Average19 °F81%30.21 "Hg
* Reported Nov 12 10:00 PM — Nov 27 10:30 PM, Karaganda, Weather by CustomWeather, © 2015

Note: Actual official high and low records may vary slightly from our data, if they occured in-between our weather recording intervals... More about our weather records


Karaganda weather history for previous 24 hours

Time TempWeatherWind HumidityBarometerVisibility
10:30 PM
Fri, Nov 27
25 °FOvercast.15 mph86%29.98 "HgN/A
10:00 PM27 °FOvercast.15 mph80%29.98 "HgN/A
9:30 PM27 °FOvercast.15 mph86%30.01 "HgN/A
9:00 PM27 °FOvercast.13 mph86%30.01 "HgN/A
8:30 PM27 °FOvercast.13 mph86%30.01 "HgN/A
8:00 PM27 °FOvercast.10 mph86%30.01 "HgN/A
7:30 PM28 °FOvercast.8 mph86%30.04 "HgN/A
7:00 PM28 °FOvercast.8 mph86%30.04 "HgN/A
6:30 PM30 °FOvercast.8 mph80%30.04 "HgN/A
6:00 PM30 °FOvercast.8 mph86%30.04 "HgN/A
5:30 PM30 °FOvercast.8 mph86%30.04 "HgN/A
5:00 PM30 °FOvercast.6 mph93%30.04 "HgN/A
4:30 PM30 °FOvercast.8 mph93%30.04 "HgN/A
4:00 PM32 °FOvercast.6 mph87%30.04 "HgN/A
3:30 PM32 °FOvercast.8 mph87%30.04 "HgN/A
3:00 PM32 °FOvercast.10 mph87%30.04 "HgN/A
2:30 PM32 °FOvercast.10 mph87%30.04 "HgN/A
2:00 PM32 °FOvercast.10 mph87%30.07 "HgN/A
12:30 PM32 °FOvercast.13 mph87%30.09 "HgN/A
12:00 PM32 °FLow clouds.8 mph87%30.09 "HgN/A
11:30 AM32 °FLow clouds.6 mph87%30.09 "HgN/A
11:00 AM32 °FOvercast.8 mph87%30.09 "Hg5 mi
10:30 AM32 °FOvercast.8 mph87%30.09 "Hg5 mi
10:00 AM32 °FOvercast.6 mph87%30.09 "Hg5 mi
9:30 AM32 °FOvercast.8 mph87%30.09 "Hg4 mi
9:00 AM30 °FOvercast.8 mph93%30.09 "Hg4 mi
8:30 AM30 °FOvercast.8 mph93%30.09 "Hg4 mi
8:00 AM32 °FOvercast.8 mph87%30.09 "Hg4 mi
7:30 AM30 °FOvercast.8 mph93%30.09 "Hg4 mi
7:00 AM30 °FLight freezing rain. Overcast.8 mph93%30.09 "Hg3 mi
6:30 AM30 °FLight freezing rain. Overcast.10 mph93%30.12 "Hg3 mi
6:00 AM32 °FOvercast.10 mph87%30.12 "Hg5 mi
5:30 AM30 °FOvercast.10 mph93%30.12 "Hg4 mi
5:00 AM30 °FLight freezing rain. Ice fog.8 mph93%30.12 "Hg3 mi
4:00 AM30 °FIce fog.10 mph93%30.12 "Hg2 mi
3:30 AM30 °FIce fog.8 mph93%30.12 "Hg3 mi
3:00 AM30 °FIce fog.15 mph93%30.12 "Hg3 mi
2:30 AM30 °FLow clouds.13 mph93%30.15 "Hg4 mi
2:00 AM30 °FLow clouds.15 mph93%30.15 "Hg5 mi
1:30 AM30 °FLow clouds.13 mph93%30.15 "Hg5 mi
1:00 AM30 °FLow clouds.17 mph86%30.15 "Hg5 mi
12:30 AM30 °FLow clouds.17 mph86%30.15 "Hg4 mi
12:00 AM30 °FLow clouds.15 mph86%30.15 "Hg6 mi
11:30 PM
Thu, Nov 26
28 °FMostly cloudy.8 mph93%30.15 "HgN/A
11:00 PM27 °FPassing clouds.8 mph86%30.15 "HgN/A
Weather by CustomWeather, © 2015

See weather overviewHow to use our weather pages